EW9978 Weather Reports


Display with metric or nautical units.
time (UTC)temp
F
wind
direction
speed
MPH
gust
MPH
rain 1hr
in
rain 24hr
in
rain mn
in
humidity
%
barometer
mb
20260906201534 83 355 7.0 14.0 0.01 0.07 0.07 76 -0.1
20260906194521 78 330 6.0 12.0 0.01 0.07 0.07 84 -0.1
20260906191537 75 314 3.0 6.0 0.00 0.06 0.06 86 -0.1
20260906184528 75 0.0 0.0 0.01 0.06 0.06 81 -0.1
20260906181523 74 0.0 0.0 0.01 0.06 0.06 81 -0.1
20260906174515 74 0.0 0.0 0.00 0.05 0.05 78 -0.1
20260906171555 75 0.0 0.0 0.00 0.05 0.05 77 -0.1
20260906164530 74 0.0 0.0 0.00 0.05 0.05 84 -0.1
20260906161526 72 0.0 0.0 0.00 0.05 0.05 85 -0.1
20260906154518 71 0.0 0.0 0.00 0.05 0.05 83 -0.1
20260906151531 71 0.0 0.0 0.00 0.05 0.05 82 -0.1
20260906144542 71 0.0 0.0 0.00 0.05 0.05 85 -0.1
20260906141557 69 0.0 0.0 0.00 0.05 0.05 87 -0.1
20260906134527 68 0.0 0.0 0.00 0.05 0.05 91 -0.1
20260906131545 69 0.0 0.0 0.00 0.05 0.05 92 -0.1
20260906124533 68 0.0 0.0 0.00 0.05 0.05 92 -0.1
20260906121529 67 0.0 0.0 0.00 0.05 0.05 91 -0.1
20260906114538 68 0.0 0.0 0.00 0.05 0.05 91 -0.1
20260906111533 70 0.0 0.0 0.01 0.05 0.05 92 -0.1
20260906104526 71 0.0 0.0 0.01 0.05 0.05 92 -0.1
20260906101522 71 0.0 0.0 0.00 0.04 0.04 92 -0.1
20260906094517 71 0.0 0.0 0.00 0.04 0.04 92 -0.1
20260906091537 72 0.0 0.0 0.03 0.04 0.04 91 -0.1
20260906084531 72 0.0 0.0 0.04 0.04 0.04 90 -0.1
20260906081528 72 0.0 0.0 0.01 0.01 0.01 88 -0.1
20260906074521 73 0.0 0.0 0.00 0.00 0.00 86 -0.1
20260906071537 73 0.0 0.0 0.00 0.00 0.00 85 -0.1
20260906064522 73 0.0 0.0 0.00 0.00 0.00 84 -0.1
20260906061539 73 0.0 0.0 0.00 0.00 0.00 84 -0.1
20260906054531 73 0.0 0.0 0.00 0.00 0.00 81 -0.1
20260906051528 74 0.0 0.0 0.00 0.00 0.00 79 -0.1
20260906044537 73 0.0 0.0 0.00 0.00 0.00 78 -0.1
20260906041533 73 0.0 0.0 0.00 0.00 0.00 78 -0.1
20260906034549 74 0.0 0.0 0.00 0.00 0.00 77 -0.1
20260906031529 74 0.0 0.0 0.00 0.00 0.00 78 -0.1
20260906024518 74 0.0 0.0 0.00 0.00 0.00 77 -0.1
20260906021534 74 0.0 0.0 0.00 0.00 0.00 77 -0.1
20260906014529 76 298 3.0 7.0 0.00 0.00 0.00 73 -0.1
20260906011525 77 292 4.0 8.0 0.00 0.00 0.00 63 -0.1
20260906004537 79 276 3.0 9.0 0.00 0.00 0.00 58 -0.1
20260906001534 81 288 4.0 9.0 0.00 0.00 0.00 53 -0.1
20260905234528 81 281 4.0 12.0 0.00 0.00 0.00 63 -0.1
20260905231525 82 268 5.0 10.0 0.00 0.00 0.00 55 -0.1
20260905224521 83 301 5.0 10.0 0.00 0.00 0.00 53 -0.1
20260905221536 84 249 5.0 10.0 0.00 0.00 0.00 58 -0.1
20260905214527 83 284 6.0 11.0 0.00 0.00 0.00 59 -0.1
20260905211544 83 267 4.0 10.0 0.00 0.00 0.00 69 -0.1
20260905204515 82 274 5.0 12.0 0.00 0.00 0.00 64 -0.1